Wind_Speed
31 31 31 31 30 30 31 30 31 30 28 28 29 29 30 31 32 32 32 33 34 35 36 37 38 38 39 40 41 41 42 43 44 45 45 45 45 45 45 45 45 45 46 47
31 31 31 31 31 30 30 30 31 30 29 29 30 31 30 31 31 31 32 33 35 35 36 37 37 37 38 39 39 40 41 41 42 42 43 44 44 44 44 44 44 44 45 46
32 31 31 30 29 30 30 29 30 29 28 29 30 31 31 31 31 31 32 33 33 34 34 34 35 35 37 38 38 40 40 41 41 41 41 42 43 43 44 44 44 44 44 45
32 32 31 30 29 29 29 28 28 28 29 30 30 30 31 31 31 31 32 32 32 32 32 33 34 35 36 37 38 39 40 40 40 40 40 41 41 42 43 43 43 43 44 44
31 32 31 29 28 28 28 27 27 28 29 30 30 31 31 31 31 31 31 32 32 32 32 33 34 34 35 36 37 38 38 38 38 38 38 39 39 40 41 41 42 42 43 43
31 32 31 30 29 28 28 28 27 28 29 30 31 31 31 31 32 31 31 32 32 33 33 34 34 34 36 36 37 37 36 37 37 37 37 37 37 38 38 39 39 40 41 42
30 31 30 30 29 29 29 29 29 29 30 30 30 31 31 31 31 31 31 32 33 34 34 34 35 35 36 36 36 37 36 36 36 37 36 36 36 36 36 37 38 38 39 40
30 30 29 29 28 28 28 29 30 30 30 30 29 30 30 31 31 31 31 32 33 34 35 35 36 36 36 36 36 36 36 35 36 36 36 35 35 35 35 36 36 37 38 38
29 29 30 29 28 28 29 30 30 31 30 30 30 30 30 31 32 32 33 34 34 34 34 35 35 36 36 36 35 35 34 35 35 35 35 34 34 34 34 35 36 37 37 38
29 29 29 29 29 29 29 30 30 31 31 30 30 30 31 31 32 33 33 33 34 34 34 34 35 35 35 35 34 34 34 34 34 34 34 34 34 34 34 34 35 36 37 37
29 29 30 30 29 29 30 31 31 31 30 30 31 31 32 32 32 33 33 33 33 34 34 35 35 34 34 33 33 33 32 32 32 32 32 33 33 34 34 34 35 35 36 37
29 30 30 30 29 29 30 30 31 30 30 31 31 32 33 33 32 32 32 32 32 33 33 33 33 33 33 32 32 32 31 31 30 30 30 31 31 32 33 33 33 34 35 36
29 29 29 29 29 29 29 30 30 30 31 31 32 33 33 33 32 32 32 32 32 32 33 32 32 31 31 31 31 30 30 29 28 27 27 28 28 28 29 30 31 31 33 34
28 28 27 28 28 28 29 29 30 31 31 32 32 32 33 32 32 32 32 33 33 32 32 31 31 30 29 28 28 28 27 26 25 24 24 25 25 25 26 27 27 28 30 31
26 27 27 27 27 27 28 29 29 30 30 31 32 32 32 32 32 32 32 33 32 32 32 31 30 29 28 27 27 27 27 26 24 24 23 23 23 24 25 26 27 27 29 30
26 26 27 27 27 27 28 28 29 30 30 31 31 32 32 32 32 32 32 32 31 31 31 31 29 28 28 27 27 27 26 26 25 25 25 24 25 26 26 27 27 28 28 29
26 26 27 27 28 28 28 29 29 30 31 31 31 32 32 33 33 33 32 32 31 31 31 30 29 28 27 27 27 26 26 26 26 26 26 26 27 27 27 27 28 29 29 30
27 27 28 28 29 29 29 29 30 30 31 31 32 32 33 33 33 33 32 32 31 31 30 30 29 28 27 26 26 25 25 25 26 26 27 27 27 27 28 28 28 28 29 29
27 28 28 29 29 29 30 30 30 30 31 31 32 33 33 33 33 33 32 32 31 30 29 29 28 27 27 27 26 26 26 25 25 26 26 27 28 28 28 28 27 28 28 28
28 28 29 29 29 29 29 30 30 31 31 32 33 33 33 33 33 32 32 31 30 30 29 28 28 27 27 27 27 26 26 26 26 26 26 27 28 28 28 28 29 29 30 30
28 28 29 29 29 29 29 30 30 31 32 33 33 33 33 33 32 32 31 31 30 30 29 29 28 28 28 27 27 27 27 27 26 26 27 27 27 28 28 29 29 29 30 30
28 28 28 28 29 29 29 30 30 31 32 32 33 33 33 32 32 31 31 31 30 30 29 29 28 28 28 28 28 27 27 27 27 27 27 27 27 27 28 28 28 29 29 30
28 28 28 28 28 29 29 30 30 31 32 32 33 33 32 32 32 31 31 30 30 29 29 29 28 28 28 28 28 28 28 28 27 27 27 27 27 27 27 27 27 27 28 28
27 28 28 28 28 29 29 30 30 31 32 33 33 32 32 31 31 31 30 30 29 29 28 28 27 27 27 27 27 27 27 27 27 27 27 27 27 27 27 27 27 27 27 27
28 28 28 28 28 29 29 30 31 32 33 33 32 31 31 31 31 30 30 29 28 28 27 27 26 26 27 26 26 26 26 26 26 27 27 27 27 26 26 26 26 26 26 26
28 27 27 28 28 29 30 31 32 32 32 32 32 31 31 30 30 30 29 28 28 27 27 27 26 26 26 26 26 25 25 25 25 25 25 25 25 25 24 24 24 24 25 25
27 27 27 27 28 29 30 31 31 32 31 32 32 31 31 30 29 29 28 27 27 27 27 26 26 26 25 25 24 24 24 23 23 23 23 23 23 23 24 24 24 24 24 24
Wind_Direction
299 299 301 300 300 299 296 296 294 294 292 290 288 288 289 287 285 283 280 279 279 280 280 280 281 280 279 278 277 276 274 273 273 271 270 269 267 265 262 260 259 257 256 255
298 298 299 300 301 300 298 296 295 294 293 291 290 291 290 288 287 284 282 282 282 283 284 284 284 283 282 281 279 278 276 273 272 272 270 268 266 265 262 260 259 258 257 256
298 299 298 300 303 300 299 299 296 295 294 292 292 294 292 291 288 285 284 285 285 286 285 286 286 285 284 283 282 280 278 275 273 272 271 269 266 264 262 261 260 259 258 257
298 299 299 303 302 300 300 298 296 295 295 294 293 294 294 293 291 289 288 288 287 288 287 287 288 289 287 285 283 282 280 277 275 273 271 270 267 264 262 261 260 259 258 257
298 298 301 302 302 301 301 301 298 297 296 296 295 295 293 293 294 292 291 291 289 289 290 290 290 290 290 288 286 283 281 277 276 274 272 270 267 265 262 261 260 259 258 257
300 300 302 303 301 300 300 302 301 298 297 297 297 295 293 293 293 292 291 292 292 291 291 291 292 293 292 290 288 285 282 279 276 275 273 271 267 265 263 261 260 259 258 257
301 301 302 303 302 300 300 301 302 301 299 299 298 296 295 294 292 292 292 293 293 292 292 292 293 294 293 291 289 287 284 281 278 276 274 271 267 264 262 260 259 259 258 257
299 301 304 303 301 299 300 301 301 302 302 301 300 298 297 296 294 292 293 294 295 295 294 294 294 294 293 291 290 288 285 282 279 276 273 271 267 264 262 261 259 258 258 257
296 300 302 301 300 299 299 300 301 302 302 302 301 300 298 297 295 294 294 295 295 296 295 295 295 294 292 291 289 288 286 283 280 277 273 271 269 265 263 262 260 258 258 258
295 298 298 298 299 300 300 301 301 301 301 302 302 302 300 298 296 295 296 296 296 296 296 295 295 294 292 290 288 287 285 284 281 277 272 269 269 266 264 263 261 260 259 259
294 295 295 297 298 299 300 302 302 301 302 302 302 302 302 300 298 297 297 296 296 297 297 297 296 295 293 290 288 287 286 285 281 277 272 269 268 266 264 263 263 262 261 261
293 295 296 298 298 298 299 300 302 302 302 302 302 302 303 302 301 300 299 299 298 298 299 299 298 296 294 291 289 288 286 286 284 279 273 269 267 265 264 264 263 263 262 262
294 295 297 298 298 298 298 299 300 301 303 303 303 303 303 303 302 302 301 300 300 300 301 300 298 296 294 292 291 289 287 285 283 278 274 271 267 265 264 263 264 265 264 263
295 297 298 299 299 298 297 298 300 301 302 303 303 304 304 303 302 302 302 301 302 302 302 302 300 297 295 292 291 289 287 285 282 278 275 272 269 267 266 265 266 266 267 266
296 297 299 300 300 299 299 300 301 303 303 303 304 304 305 305 304 303 303 302 302 301 302 302 301 298 295 292 290 289 286 284 282 279 278 275 271 269 269 269 269 269 269 268
298 298 299 300 300 300 302 302 303 304 304 304 305 305 306 305 305 304 303 303 302 301 302 301 300 297 295 293 291 289 287 283 281 280 279 277 273 272 271 271 270 271 270 269
298 298 299 299 300 300 302 303 304 305 305 305 305 306 307 306 305 304 303 303 302 301 302 301 300 299 296 293 290 288 285 283 280 279 279 277 276 274 273 272 270 269 268 269
299 298 299 300 300 299 301 303 304 305 305 306 306 307 307 306 305 304 303 302 302 301 301 301 300 299 297 294 292 289 286 283 280 278 277 276 275 274 274 274 272 271 269 270
299 299 300 300 300 300 301 303 303 305 306 307 307 307 307 307 306 305 303 302 301 300 299 298 298 297 296 293 291 290 287 285 282 280 278 277 275 274 274 274 273 272 271 271
299 300 300 301 301 301 302 303 304 305 306 307 308 308 308 308 307 306 304 302 300 299 297 295 295 296 295 293 291 290 289 287 284 281 279 278 277 275 274 273 273 272 272 272
301 301 302 302 302 301 302 304 305 306 307 308 309 310 310 309 309 307 306 304 301 300 297 295 294 293 293 293 292 290 288 287 286 284 281 279 277 275 273 273 273 272 272 273
302 303 302 302 303 303 303 305 306 308 309 310 311 311 311 310 310 309 307 305 303 301 299 297 296 294 293 292 292 290 288 287 286 285 284 282 279 277 275 273 273 273 272 273
305 305 305 304 304 305 305 306 308 310 311 312 312 312 311 311 311 310 309 307 304 302 300 298 297 295 294 293 292 290 288 287 286 285 284 284 282 280 277 275 274 273 273 273
307 307 307 307 306 306 306 308 309 311 312 313 313 313 312 312 311 311 310 308 305 303 301 299 298 298 297 295 294 293 291 288 286 285 285 284 283 280 278 277 276 276 276 276
307 307 307 307 307 307 308 309 310 312 313 314 314 313 313 312 312 311 310 309 307 305 303 301 300 299 298 297 295 294 292 291 289 287 286 285 284 282 280 278 278 278 277 277
307 307 307 308 308 309 310 311 312 312 313 314 314 314 313 312 312 311 310 309 308 307 305 304 302 299 298 297 296 294 294 293 292 291 289 287 286 284 282 281 280 280 280 280
307 308 308 309 310 311 312 313 313 313 314 314 314 314 314 313 312 311 311 309 308 308 308 307 304 301 299 297 296 296 296 295 294 293 291 289 288 285 283 282 281 282 282 282
Height
5602 5598 5595 5592 5589 5585 5581 5578 5575 5573 5570 5568 5564 5562 5559 5556 5553 5551 5549 5547 5545 5543 5540 5538 5536 5534 5532 5530 5528 5526 5524 5523 5521 5519 5518 5517 5517 5517 5517 5518 5519 5521 5523 5525
5594 5591 5587 5584 5581 5577 5573 5570 5567 5564 5562 5559 5556 5553 5550 5547 5545 5542 5540 5538 5535 5532 5530 5527 5525 5523 5520 5518 5516 5514 5512 5510 5508 5507 5506 5505 5504 5504 5504 5505 5506 5508 5510 5512
5585 5582 5579 5576 5574 5569 5566 5562 5559 5556 5555 5551 5548 5545 5542 5539 5536 5534 5531 5528 5526 5523 5520 5517 5515 5512 5509 5507 5505 5502 5500 5498 5496 5495 5493 5492 5492 5492 5492 5493 5494 5496 5498 5500
5576 5574 5570 5572 5565 5561 5558 5555 5551 5548 5545 5542 5539 5536 5533 5530 5527 5525 5522 5519 5516 5514 5511 5508 5505 5501 5498 5495 5493 5490 5488 5486 5484 5483 5481 5480 5480 5480 5480 5481 5482 5484 5486 5488
5567 5564 5562 5561 5557 5553 5550 5548 5544 5540 5537 5534 5531 5528 5525 5522 5519 5516 5513 5510 5507 5504 5501 5498 5495 5491 5488 5485 5482 5479 5477 5474 5473 5471 5470 5469 5468 5468 5468 5469 5470 5472 5474 5475
5559 5555 5553 5553 5549 5544 5542 5540 5537 5533 5529 5526 5523 5520 5518 5514 5510 5507 5504 5501 5498 5495 5492 5488 5485 5481 5478 5475 5471 5468 5466 5463 5461 5460 5458 5457 5456 5456 5457 5457 5459 5460 5462 5464
5552 5547 5545 5544 5540 5537 5535 5533 5528 5524 5521 5518 5514 5511 5508 5505 5501 5498 5495 5492 5489 5485 5482 5479 5475 5472 5468 5465 5461 5458 5455 5452 5450 5448 5447 5446 5445 5445 5446 5447 5448 5449 5451 5453
5544 5540 5540 5535 5531 5529 5527 5523 5520 5516 5513 5509 5506 5502 5499 5495 5492 5489 5486 5483 5479 5476 5472 5469 5466 5462 5458 5455 5451 5448 5445 5442 5440 5438 5436 5436 5435 5435 5435 5436 5437 5439 5440 5441
5538 5536 5531 5527 5524 5521 5518 5515 5512 5508 5505 5501 5498 5494 5490 5487 5483 5480 5477 5473 5470 5467 5463 5459 5455 5451 5448 5444 5441 5437 5434 5432 5429 5427 5426 5425 5425 5425 5425 5426 5427 5428 5429 5431
5529 5527 5523 5519 5516 5513 5510 5507 5504 5500 5497 5493 5489 5485 5482 5478 5474 5471 5467 5464 5461 5457 5453 5449 5445 5441 5437 5434 5431 5427 5425 5422 5419 5417 5416 5415 5415 5415 5415 5415 5416 5418 5419 5421
5521 5519 5516 5512 5509 5506 5502 5499 5495 5492 5488 5484 5481 5477 5473 5469 5465 5462 5458 5455 5451 5448 5444 5440 5436 5432 5427 5424 5421 5418 5415 5412 5410 5408 5406 5406 5405 5405 5406 5406 5407 5408 5409 5410
5514 5511 5508 5505 5501 5498 5495 5491 5487 5484 5480 5476 5472 5468 5465 5461 5457 5453 5449 5446 5442 5438 5435 5430 5426 5422 5419 5415 5412 5409 5406 5403 5401 5399 5397 5396 5396 5396 5396 5397 5397 5398 5399 5400
5505 5503 5499 5496 5493 5490 5486 5483 5479 5476 5472 5468 5464 5460 5456 5452 5448 5444 5440 5437 5433 5429 5425 5421 5417 5413 5410 5406 5403 5400 5397 5395 5392 5390 5389 5388 5387 5387 5388 5388 5388 5389 5390 5390
5497 5495 5492 5488 5485 5481 5478 5475 5471 5467 5463 5460 5456 5452 5447 5443 5440 5436 5432 5428 5424 5420 5416 5412 5408 5405 5401 5398 5395 5392 5389 5387 5385 5383 5381 5380 5379 5379 5380 5380 5381 5380 5381 5381
5490 5487 5484 5480 5477 5473 5470 5467 5463 5459 5455 5451 5447 5443 5439 5435 5431 5427 5423 5419 5415 5411 5407 5404 5400 5396 5393 5390 5387 5384 5382 5380 5377 5376 5374 5373 5372 5372 5372 5372 5372 5372 5372 5372
5482 5479 5476 5473 5469 5466 5462 5459 5455 5451 5447 5443 5439 5435 5431 5426 5423 5419 5414 5410 5407 5403 5399 5395 5391 5388 5385 5382 5379 5377 5374 5372 5370 5369 5368 5366 5365 5364 5364 5364 5364 5364 5363 5363
5474 5471 5468 5465 5462 5458 5455 5451 5447 5443 5439 5435 5431 5427 5422 5418 5414 5410 5406 5401 5398 5394 5390 5386 5383 5380 5377 5374 5371 5369 5366 5364 5363 5361 5360 5359 5358 5357 5356 5356 5355 5355 5354 5353
5467 5464 5461 5457 5454 5450 5447 5443 5439 5435 5431 5427 5423 5418 5414 5409 5405 5401 5396 5392 5389 5385 5381 5378 5375 5371 5368 5366 5363 5361 5359 5357 5355 5353 5352 5351 5350 5349 5348 5347 5347 5346 5345 5345
5459 5456 5452 5449 5445 5442 5438 5435 5431 5427 5423 5418 5414 5410 5405 5400 5396 5391 5387 5383 5380 5376 5373 5369 5366 5363 5360 5358 5355 5353 5350 5348 5347 5345 5343 5342 5341 5340 5339 5338 5338 5337 5336 5335
5451 5447 5444 5441 5437 5434 5430 5426 5423 5419 5414 5410 5405 5401 5396 5391 5387 5382 5378 5374 5371 5367 5364 5361 5358 5355 5352 5349 5347 5344 5342 5340 5338 5336 5334 5333 5331 5330 5329 5328 5328 5327 5326 5325
5443 5439 5436 5433 5429 5425 5422 5418 5414 5410 5406 5401 5397 5392 5387 5383 5378 5373 5369 5365 5362 5358 5355 5352 5349 5346 5343 5341 5338 5335 5333 5331 5329 5327 5325 5324 5322 5321 5320 5319 5318 5317 5316 5315
5435 5431 5428 5425 5421 5418 5414 5410 5406 5402 5397 5393 5388 5383 5378 5374 5369 5365 5360 5357 5353 5349 5346 5343 5340 5337 5334 5331 5329 5326 5324 5322 5320 5318 5316 5315 5313 5312 5310 5309 5308 5308 5307 5306
5427 5424 5420 5417 5413 5410 5406 5402 5398 5394 5389 5384 5380 5375 5370 5365 5360 5356 5352 5348 5344 5340 5337 5334 5331 5328 5325 5322 5320 5317 5315 5313 5311 5309 5307 5306 5304 5303 5301 5300 5299 5298 5297 5296
5419 5416 5412 5409 5405 5402 5398 5394 5390 5386 5381 5376 5371 5366 5361 5357 5352 5348 5343 5339 5335 5332 5328 5325 5322 5319 5316 5313 5311 5308 5306 5304 5302 5300 5298 5297 5295 5294 5292 5291 5290 5289 5288 5287
5412 5408 5405 5402 5398 5394 5390 5386 5382 5378 5373 5368 5363 5358 5353 5348 5344 5340 5335 5331 5327 5323 5320 5317 5314 5311 5308 5305 5302 5300 5297 5295 5293 5291 5289 5287 5286 5285 5283 5282 5281 5280 5279 5278
5405 5401 5398 5394 5390 5387 5383 5378 5374 5369 5365 5360 5355 5350 5345 5341 5336 5331 5327 5323 5319 5315 5312 5309 5305 5302 5299 5296 5294 5291 5289 5286 5284 5282 5280 5278 5277 5276 5275 5273 5272 5271 5270 5269
5397 5394 5390 5387 5383 5379 5375 5370 5366 5361 5356 5352 5347 5342 5337 5332 5328 5323 5319 5315 5311 5308 5304 5301 5297 5294 5291 5288 5285 5283 5280 5278 5276 5274 5272 5270 5269 5267 5266 5265 5264 5262 5261 5260